カタログに戻る

TDRS 7

運用中通信GEO
NORAD 23613·PAYLOAD·🇺🇸 United States

打ち上げ Jul 13, 1995 から Cape Canaveral Space Force Station

Loading…

TLE

最新Source: Space-Track

元期: Sep 13, 2026, 16:51 UTC

1 23613U 95035B   26256.70253163 -.00000248  00000-0  00000-0 0  9990
2 23613  13.3011 347.5707 0011180  99.0854 248.2000  1.00273729114132

AllMySatでTDRS 7をリアルタイム追跡

Download on the App Store